TimeCST,TemperatureF,Dew PointF,Humidity,Sea Level PressureIn,VisibilityMPH,Wind Direction,Wind SpeedMPH,Gust SpeedMPH,PrecipitationIn,Events,Conditions,WindDirDegrees,DateUTC
12:53 AM,28.0,19.9,72,30.43,10.0,Calm,Calm,-,N/A,,Clear,0,2012-11-13 06:53:00
1:53 AM,28.0,19.9,72,30.44,10.0,WNW,3.5,-,N/A,,Clear,290,2012-11-13 07:53:00
2:53 AM,25.0,19.9,81,30.45,10.0,Calm,Calm,-,N/A,,Clear,0,2012-11-13 08:53:00
3:53 AM,24.1,19.9,84,30.45,10.0,Calm,Calm,-,N/A,,Clear,0,2012-11-13 09:53:00
4:53 AM,24.1,19.9,84,30.47,10.0,Calm,Calm,-,N/A,,Clear,0,2012-11-13 10:53:00
5:53 AM,23.0,19.0,85,30.49,10.0,Calm,Calm,-,N/A,,Clear,0,2012-11-13 11:53:00
6:53 AM,23.0,19.0,85,30.51,10.0,WNW,3.5,-,N/A,,Clear,290,2012-11-13 12:53:00
7:53 AM,26.1,21.9,84,30.53,10.0,Calm,Calm,-,N/A,,Clear,0,2012-11-13 13:53:00
8:53 AM,30.0,24.1,79,30.52,10.0,Calm,Calm,-,N/A,,Clear,0,2012-11-13 14:53:00
9:53 AM,35.1,23.0,61,30.53,10.0,SW,6.9,-,N/A,,Clear,220,2012-11-13 15:53:00
10:53 AM,37.0,23.0,57,30.52,10.0,South,5.8,-,N/A,,Clear,180,2012-11-13 16:53:00
11:53 AM,39.9,21.0,47,30.49,10.0,SSW,4.6,-,N/A,,Clear,210,2012-11-13 17:53:00
12:53 PM,42.1,25.0,51,30.47,10.0,SW,9.2,-,N/A,,Clear,220,2012-11-13 18:53:00
1:53 PM,44.1,25.0,47,30.45,10.0,Variable,4.6,-,N/A,,Clear,0,2012-11-13 19:53:00
2:53 PM,45.0,25.0,46,30.44,10.0,SSW,5.8,-,N/A,,Clear,200,2012-11-13 20:53:00
3:53 PM,44.1,25.0,47,30.43,10.0,South,5.8,-,N/A,,Clear,170,2012-11-13 21:53:00
4:53 PM,41.0,24.1,51,30.43,10.0,SSE,4.6,-,N/A,,Clear,150,2012-11-13 22:53:00
5:53 PM,37.9,24.1,57,30.44,10.0,SE,4.6,-,N/A,,Clear,140,2012-11-13 23:53:00
6:53 PM,37.0,24.1,59,30.44,10.0,SE,6.9,-,N/A,,Clear,140,2012-11-14 00:53:00
7:53 PM,37.0,24.1,59,30.45,10.0,SSE,6.9,-,N/A,,Clear,150,2012-11-14 01:53:00
8:53 PM,37.9,24.1,57,30.46,10.0,SSE,8.1,-,N/A,,Clear,160,2012-11-14 02:53:00
9:53 PM,37.9,24.1,57,30.46,10.0,SSE,8.1,-,N/A,,Clear,160,2012-11-14 03:53:00
10:53 PM,37.9,24.1,57,30.45,10.0,SSE,6.9,-,N/A,,Clear,150,2012-11-14 04:53:00
11:53 PM,37.0,25.0,62,30.46,10.0,South,8.1,-,N/A,,Clear,170,2012-11-14 05:53:00